This is the latest recevied weather packets stored in our database for station/object HB9TJM-8. If no packets are shown the sender has not sent any weather packets the latest 10 day(s).
| Time | Temp. | Humidity | Pressure | Rain* | Wind** | Luminosity | Snow |
|---|---|---|---|---|---|---|---|
| 1777557859 | 14.44° C | 54% | 1020.3 hPa | 0 mm | - | 652 W/m² | - |
| 1777557552 | 14.44° C | 54% | 1020.5 hPa | 0 mm | - | 664 W/m² | - |
| 1777557244 | 14.44° C | 55% | 1020.5 hPa | 0 mm | - | 674 W/m² | - |
| 1777556937 | 14.44° C | 55% | 1020.6 hPa | 0 mm | - | 686 W/m² | - |
| 1777556630 | 14.44° C | 56% | 1020.4 hPa | 0 mm | - | 697 W/m² | - |
| 1777556322 | 15° C | 56% | 1020.5 hPa | 0 mm | - | 709 W/m² | - |
| 1777556015 | 14.44° C | 55% | 1020.4 hPa | 0 mm | - | 725 W/m² | - |
| 1777555708 | 14.44° C | 56% | 1020.5 hPa | 0 mm | - | 731 W/m² | - |
| 1777555401 | 14.44° C | 55% | 1020.3 hPa | 0 mm | - | 739 W/m² | - |
| 1777555093 | 14.44° C | 58% | 1020.5 hPa | 0 mm | - | 751 W/m² | - |
| 1777554786 | 13.89° C | 57% | 1020.4 hPa | 0 mm | - | 761 W/m² | - |
| 1777554479 | 13.89° C | 55% | 1020.5 hPa | 0 mm | - | 768 W/m² | - |
| 1777554171 | 13.89° C | 58% | 1020.8 hPa | 0 mm | - | 770 W/m² | - |
| 1777553864 | 13.89° C | 56% | 1020.6 hPa | 0 mm | - | 781 W/m² | - |
| 1777553556 | 13.89° C | 56% | 1020.6 hPa | 0 mm | - | 789 W/m² | - |
| 1777553249 | 13.89° C | 57% | 1020.9 hPa | 0 mm | - | 797 W/m² | - |
| 1777552941 | 13.89° C | 56% | 1020.8 hPa | 0 mm | - | 804 W/m² | - |
| 1777552634 | 13.33° C | 60% | 1020.7 hPa | 0 mm | - | 813 W/m² | - |
| 1777552326 | 13.89° C | 59% | 1020.3 hPa | 0 mm | - | 817 W/m² | - |
| 1777552019 | 13.33° C | 58% | 1020.7 hPa | 0 mm | - | 824 W/m² | - |
| 1777551711 | 13.33° C | 57% | 1020.6 hPa | 0 mm | - | 827 W/m² | - |
| 1777551404 | 13.33° C | 59% | 1020.8 hPa | 0 mm | - | 832 W/m² | - |
| 1777551097 | 13.33° C | 57% | 1020.7 hPa | 0 mm | - | 835 W/m² | - |
| 1777550789 | 12.78° C | 58% | 1020.6 hPa | 0 mm | - | 839 W/m² | - |
| 1777550482 | 13.33° C | 58% | 1020.8 hPa | 0 mm | - | 841 W/m² | - |
* Rain latest hour (hover to see other rain measurements)
** Current wind speed in m/s (hover to see current wind gust speed)